This is the latest recevied weather packets stored in our database for station/object IZ0VWB-3. If no packets are shown the sender has not sent any weather packets the latest 1 day(s).
| Time | Temp. | Humidity | Pressure | Rain* | Wind** | Luminosity | Snow |
|---|---|---|---|---|---|---|---|
| 1778069020 | 20° C | 59% | 999.5 hPa | 0 mm | - | - | - |
| 1778067821 | 20° C | 58% | 999.5 hPa | 0 mm | - | - | - |
| 1778066619 | 20.56° C | 58% | 999.6 hPa | 0 mm | - | - | - |
| 1778065420 | 20° C | 61% | 999.8 hPa | 0 mm | - | - | - |
| 1778064821 | 20° C | 60% | 999.7 hPa | 0 mm | - | - | - |
| 1778063620 | 18.89° C | 63% | 999.9 hPa | 0 mm | - | - | - |
| 1778063020 | 18.33° C | 64% | 1000.1 hPa | 0 mm | - | - | - |
| 1778061576 | 18.33° C | 71% | 1000.1 hPa | 0 mm | - | - | - |
| 1778060977 | 18.33° C | 71% | 1000 hPa | 0 mm | - | - | - |
| 1778059776 | 17.78° C | 76% | 1000 hPa | 0 mm | - | - | - |
| 1778059177 | 17.22° C | 77% | 999.9 hPa | 0 mm | - | - | - |
| 1778057976 | 16.67° C | 78% | 1000.1 hPa | 0 mm | - | - | - |
| 1778056776 | 16.11° C | 80% | 999.9 hPa | 0 mm | - | - | - |
| 1778056177 | 15.56° C | 80% | 999.7 hPa | 0 mm | - | - | - |
| 1778055575 | 15.56° C | 80% | 999.7 hPa | 0 mm | - | - | - |
| 1778054976 | 15° C | 80% | 999.7 hPa | 0 mm | - | - | - |
| 1778053776 | 15° C | 80% | 999.6 hPa | 0 mm | - | - | - |
| 1778053177 | 15° C | 81% | 999.7 hPa | 0 mm | - | - | - |
| 1778052268 | 15° C | 81% | 999.6 hPa | 0 mm | - | - | - |
| 1778051616 | 15° C | 82% | 999.7 hPa | 0 mm | - | - | - |
| 1778050414 | 15° C | 83% | 999.8 hPa | 0 mm | - | - | - |
| 1778049215 | 13.33° C | 83% | 999.7 hPa | 0 mm | - | - | - |
| 1778048616 | 13.33° C | 82% | 999.7 hPa | 0 mm | - | - | - |
| 1778048014 | 13.33° C | 81% | 999.6 hPa | 0 mm | - | - | - |
| 1778046215 | 12.78° C | 79% | 999.8 hPa | 0.76 mm | - | - | - |
* Rain latest hour (hover to see other rain measurements)
** Current wind speed in m/s (hover to see current wind gust speed)